| time (UTC) | temp F | wind direction | speed MPH | gust MPH | rain 1hr in | rain 24hr in | rain mn in | humidity % | barometer mb |
| 20260906122843 | 71 | 360 | 0.0 | 0.0 | 0.00 | 0.16 | 0.16 | 98 | |
| 20260906115842 | 71 | 360 | 0.0 | 0.0 | 0.00 | 0.16 | 0.16 | 98 | |
| 20260906112841 | 71 | 360 | 0.0 | 0.0 | 0.00 | 0.16 | 0.16 | 98 | |
| 20260906105840 | 71 | 360 | 0.0 | 0.0 | 0.00 | 0.16 | 0.16 | 98 | |
| 20260906102839 | 71 | 360 | 0.0 | 0.0 | 0.01 | 0.16 | 0.16 | 98 | |
| 20260906095838 | 71 | 360 | 0.0 | 0.0 | 0.01 | 0.16 | 0.16 | 98 | |
| 20260906092837 | 73 | 360 | 0.0 | 0.0 | 0.00 | 0.15 | 0.15 | 97 | |
| 20260906085836 | 72 | 360 | 0.0 | 0.0 | 0.00 | 0.15 | 0.15 | 97 | |
| 20260906082835 | 73 | 360 | 0.0 | 0.0 | 0.00 | 0.15 | 0.15 | 97 | |
| 20260906075834 | 73 | 340 | 1.0 | 1.0 | 0.01 | 0.15 | 0.15 | 94 | |
| 20260906072833 | 73 | 270 | 2.0 | 2.0 | 0.06 | 0.15 | 0.15 | 93 | |
| 20260906065832 | 73 | 259 | 1.0 | 2.0 | 0.12 | 0.14 | 0.14 | 94 | |
| 20260906062831 | 74 | 311 | 2.0 | 2.0 | 0.09 | 0.09 | 0.09 | 94 | |
| 20260906055830 | 75 | 69 | 3.0 | 5.0 | 0.02 | 0.02 | 0.02 | 89 | |
| 20260906052829 | 77 | 110 | 2.0 | 3.0 | 0.00 | 0.00 | 0.00 | 79 | |
| 20260906045828 | 80 | 159 | 2.0 | 2.0 | 0.00 | 0.00 | 0.00 | 74 | |
| 20260906042827 | 79 | 312 | 3.0 | 3.0 | 0.00 | 0.00 | 0.00 | 78 | |
| 20260906035826 | 79 | 360 | 0.0 | 1.0 | 0.00 | 0.00 | 0.00 | 79 | |
| 20260906032825 | 80 | 360 | 0.0 | 0.0 | 0.00 | 0.00 | 0.00 | 78 | |
| 20260906025824 | 79 | 319 | 1.0 | 2.0 | 0.00 | 0.00 | 0.00 | 76 | |
| 20260906022823 | 80 | 360 | 0.0 | 0.0 | 0.00 | 0.00 | 0.00 | 74 | |
| 20260906015822 | 81 | 360 | 0.0 | 0.0 | 0.00 | 0.00 | 0.00 | 73 | |
| 20260906012821 | 80 | 360 | 0.0 | 0.0 | 0.00 | 0.00 | 0.00 | 72 | |
| 20260906005820 | 85 | 360 | 0.0 | 0.0 | 0.00 | 0.00 | 0.00 | 65 | |
| 20260906002819 | 84 | 360 | 0.0 | 0.0 | 0.00 | 0.00 | 0.00 | 65 | |
| 20260905235818 | 86 | 360 | 0.0 | 1.0 | 0.00 | 0.00 | 0.00 | 59 | |
| 20260905232817 | 86 | 360 | 0.0 | 0.0 | 0.00 | 0.00 | 0.00 | 54 | |
| 20260905225816 | 87 | 205 | 1.0 | 1.0 | 0.00 | 0.00 | 0.00 | 54 | |
| 20260905222815 | 86 | 84 | 4.0 | 5.0 | 0.00 | 0.00 | 0.00 | 53 | |
| 20260905215814 | 93 | 93 | 9.0 | 9.0 | 0.00 | 0.00 | 0.00 | 44 | |
| 20260905212813 | 97 | 34 | 2.0 | 2.0 | 0.00 | 0.00 | 0.00 | 40 | |
| 20260905205812 | 99 | 37 | 2.0 | 3.0 | 0.00 | 0.00 | 0.00 | 36 | |
| 20260905202811 | 98 | 11 | 3.0 | 3.0 | 0.00 | 0.00 | 0.00 | 38 | |
| 20260905195810 | 97 | 318 | 4.0 | 5.0 | 0.00 | 0.00 | 0.00 | 40 | |
| 20260905192809 | 97 | 27 | 4.0 | 4.0 | 0.00 | 0.00 | 0.00 | 40 | |
| 20260905185808 | 97 | 87 | 4.0 | 4.0 | 0.00 | 0.00 | 0.00 | 42 | |
| 20260905182807 | 99 | 20 | 4.0 | 4.0 | 0.00 | 0.00 | 0.00 | 40 | |
| 20260905175806 | 97 | 68 | 4.0 | 4.0 | 0.00 | 0.00 | 0.00 | 40 | |
| 20260905172805 | 97 | 56 | 4.0 | 4.0 | 0.00 | 0.00 | 0.00 | 42 | |
| 20260905165804 | 97 | 20 | 3.0 | 3.0 | 0.00 | 0.00 | 0.00 | 43 | |
| 20260905162803 | 95 | 125 | 2.0 | 2.0 | 0.00 | 0.00 | 0.00 | 45 | |
| 20260905155802 | 93 | 52 | 2.0 | 2.0 | 0.00 | 0.00 | 0.00 | 49 | |
| 20260905152801 | 91 | 58 | 1.0 | 2.0 | 0.00 | 0.00 | 0.00 | 53 | |
| 20260905145800 | 87 | 93 | 2.0 | 2.0 | 0.00 | 0.00 | 0.00 | 64 | |
| 20260905142802 | 84 | 21 | 1.0 | 1.0 | 0.00 | 0.00 | 0.00 | 72 | |
| 20260905135758 | 81 | 360 | 0.0 | 0.0 | 0.00 | 0.00 | 0.00 | 78 | |
| 20260905132757 | 79 | 360 | 0.0 | 0.0 | 0.00 | 0.00 | 0.00 | 85 | |
| 20260905125756 | 76 | 360 | 0.0 | 0.0 | 0.00 | 0.00 | 0.00 | 91 |